Flag Island, MN

5:49 PM CDT on March 22, 2017 (GMT -0500)
Flag Island

Weather History for KFGN - February, 2013

Change the Weather History Date:

Friday, February 22, 2013

  Actual Average Record
Temperature  
Mean Temperature 13 °F -  
Max Temperature 23 °F 18 °F 33 °F (1998)
Min Temperature 3 °F 3 °F -29 °F (2015)
Degree Days  
Heating Degree Days 52    
Moisture  
Dew Point 9 °F    
Average Humidity 82    
Maximum Humidity 93    
Minimum Humidity 67    
Precipitation  
Precipitation 0.00 in - - ()
Sea Level Pressure  
Sea Level Pressure 30.03 in    
Wind  
Wind Speed 3 mph (NE)    
Max Wind Speed 8 mph    
Max Gust Speed -    
Visibility 10 miles    
Events      
Averages and records for this station are not official NWS values.
T = Trace of Precipitation, MM = Missing Value Source: NWS Daily Summary

Daily Weather History Graph

Daily Weather History Graph

Search for Another Location

Airport or City:

Trip Planner

Search our weather history database for the weather conditions in past years. The results will help you decide how hot, cold, wet, or windy it might be!

Date:

Astronomy

Feb. 22, 2013 Rise Set
Actual Time 7:15 AM CST 5:51 PM CST
Civil Twilight 6:42 AM CST 6:24 PM CST
Nautical Twilight 6:05 AM CST 7:01 PM CST
Astronomical Twilight 5:29 AM CST 7:37 PM CST
Moon 2:53 PM CST 5:12 AM CST
Length of Visible Light 11h 41m
Length of Day
10h 36m
Waxing Gibbous, 90% of the Moon is Illuminated
Feb 22
Waxing Gibbous
Feb 25
Full
Mar 4
Last Quarter
Mar 11
New
Mar 19
First Quarter

Hourly Weather History & Observations

Time (CST) Temp. Windchill Dew Point Humidity Pressure Visibility Wind Dir Wind Speed Gust Speed Precip Events Conditions
12:13 AM 6.8 °F - -0.4 °F 72% 30.24 in 10.0 mi Calm Calm - N/A   Clear
12:34 AM 5.0 °F -2.1 °F -2.2 °F 72% 30.22 in 10.0 mi North 3.5 mph - N/A   Clear
12:53 AM 5.0 °F - -2.2 °F 72% 30.22 in 10.0 mi Calm Calm - N/A   Clear
1:13 AM 3.2 °F - -2.2 °F 78% 30.21 in 10.0 mi Calm Calm - N/A   Clear
1:34 AM 3.2 °F -4.2 °F -2.2 °F 78% 30.20 in 10.0 mi North 3.5 mph - N/A   Clear
1:54 AM 3.2 °F - -2.2 °F 78% 30.20 in 10.0 mi Calm Calm - N/A   Clear
2:13 AM 5.0 °F - -2.2 °F 72% 30.20 in 10.0 mi Calm Calm - N/A   Clear
2:34 AM 6.8 °F - -0.4 °F 72% 30.20 in 10.0 mi Calm Calm - N/A   Clear
2:53 AM 3.2 °F - -2.2 °F 78% 30.19 in 10.0 mi Calm Calm - N/A   Clear
3:14 AM 6.8 °F - -0.4 °F 72% 30.18 in 10.0 mi Calm Calm - N/A   Clear
3:33 AM 3.2 °F - -0.4 °F 85% 30.17 in 10.0 mi Calm Calm - N/A   Clear
3:53 AM 10.4 °F 4.0 °F 1.4 °F 67% 30.17 in 10.0 mi East 3.5 mph - N/A   Clear
4:14 AM 10.4 °F 4.0 °F 3.2 °F 73% 30.16 in 10.0 mi ENE 3.5 mph - N/A   Clear
4:33 AM 10.4 °F 0.8 °F 6.8 °F 85% 30.15 in 10.0 mi East 5.8 mph - N/A   Scattered Clouds
4:53 AM 10.4 °F 0.8 °F 8.6 °F 92% 30.14 in 10.0 mi East 5.8 mph - N/A   Overcast
5:14 AM 12.2 °F 2.9 °F 8.6 °F 85% 30.13 in 10.0 mi East 5.8 mph - N/A   Overcast
5:33 AM 12.2 °F 4.3 °F 8.6 °F 85% 30.13 in 10.0 mi East 4.6 mph - N/A   Overcast
6:14 AM 5.0 °F -5.6 °F 1.4 °F 85% 30.13 in 10.0 mi North 5.8 mph - N/A   Overcast
6:33 AM 5.0 °F -4.1 °F 1.4 °F 85% 30.12 in 10.0 mi North 4.6 mph - N/A   Overcast
6:53 AM 6.8 °F -3.5 °F 1.4 °F 79% 30.12 in 10.0 mi North 5.8 mph - N/A   Overcast
7:14 AM 6.8 °F -2.0 °F 3.2 °F 85% 30.11 in 10.0 mi NNE 4.6 mph - N/A   Overcast
7:33 AM 8.6 °F - 3.2 °F 79% 30.11 in 10.0 mi Calm Calm - N/A   Overcast
7:53 AM 8.6 °F 2.0 °F 3.2 °F 79% 30.10 in 10.0 mi NNE 3.5 mph - N/A   Overcast
8:14 AM 10.4 °F 2.2 °F 5.0 °F 79% 30.10 in 10.0 mi NE 4.6 mph - N/A   Overcast
8:33 AM 10.4 °F 2.2 °F 5.0 °F 79% 30.09 in 10.0 mi NE 4.6 mph - N/A   Overcast
8:53 AM 12.2 °F - 6.8 °F 79% 30.08 in 10.0 mi Calm Calm - N/A   Overcast
9:14 AM 12.2 °F 4.3 °F 6.8 °F 79% 30.07 in 10.0 mi NNE 4.6 mph - N/A   Overcast
9:33 AM 12.2 °F 2.9 °F 8.6 °F 85% 30.07 in 10.0 mi NNE 5.8 mph - N/A   Overcast
9:54 AM 14.0 °F 5.1 °F 8.6 °F 79% 30.06 in 10.0 mi NNE 5.8 mph - N/A   Overcast
10:01 AM 15.8 °F 7.2 °F 10.4 °F 79% 30.06 in 10.0 mi NNE 5.8 mph - N/A   Overcast
10:34 AM 15.8 °F 7.2 °F 10.4 °F 79% 30.06 in 10.0 mi North 5.8 mph - N/A   Overcast
10:53 AM 15.8 °F 7.2 °F 10.4 °F 79% 30.05 in 10.0 mi North 5.8 mph - N/A   Overcast
11:14 AM 17.6 °F 10.7 °F 12.2 °F 79% 30.04 in 10.0 mi NE 4.6 mph - N/A   Overcast
11:33 AM 17.6 °F 12.3 °F 12.2 °F 79% 30.04 in 10.0 mi ENE 3.5 mph - N/A   Overcast
11:54 AM 19.4 °F 12.8 °F 14.0 °F 80% 30.03 in 10.0 mi East 4.6 mph - N/A   Overcast
12:14 PM 19.4 °F - 14.0 °F 80% 30.02 in 10.0 mi Calm Calm - N/A   Overcast
12:33 PM 21.2 °F - 15.8 °F 80% 30.01 in 10.0 mi Calm Calm - N/A   Overcast
12:54 PM 21.2 °F - 15.8 °F 80% 30.00 in 10.0 mi Calm Calm - N/A   Overcast
1:14 PM 21.2 °F - 15.8 °F 80% 30.00 in 10.0 mi Calm Calm - N/A   Overcast
1:33 PM 23.0 °F 15.8 °F 17.6 °F 80% 29.99 in 10.0 mi ESE 5.8 mph - N/A   Overcast
1:53 PM 23.0 °F 14.7 °F 17.6 °F 80% 29.98 in 10.0 mi ESE 6.9 mph - N/A   Overcast
2:14 PM 23.0 °F 17.0 °F 17.6 °F 80% 29.97 in 10.0 mi SSE 4.6 mph - N/A   Overcast
2:33 PM 21.2 °F 13.6 °F 17.6 °F 86% 29.96 in 10.0 mi SSE 5.8 mph - N/A   Overcast
2:53 PM 21.2 °F 16.4 °F 17.6 °F 86% 29.96 in 10.0 mi South 3.5 mph - N/A   Scattered Clouds
3:13 PM 21.2 °F - 17.6 °F 86% 29.96 in 10.0 mi Calm Calm - N/A   Scattered Clouds
3:33 PM 21.2 °F - 17.6 °F 86% 29.96 in 10.0 mi Calm Calm - N/A   Clear
3:54 PM 23.0 °F - 17.6 °F 80% 29.95 in 10.0 mi Calm Calm - N/A   Scattered Clouds
4:13 PM 21.2 °F - 17.6 °F 86% 29.95 in 10.0 mi Calm Calm - N/A   Clear
4:33 PM 21.2 °F 14.9 °F 15.8 °F 80% 29.96 in 10.0 mi North 4.6 mph - N/A   Clear
4:54 PM 21.2 °F 13.6 °F 15.8 °F 80% 29.95 in 10.0 mi North 5.8 mph - N/A   Clear
5:13 PM 21.2 °F 13.6 °F 15.8 °F 80% 29.95 in 10.0 mi NNE 5.8 mph - N/A   Scattered Clouds
5:33 PM 21.2 °F 14.9 °F 15.8 °F 80% 29.95 in 10.0 mi North 4.6 mph - N/A   Overcast
5:54 PM 21.2 °F 16.4 °F 15.8 °F 80% 29.95 in 10.0 mi North 3.5 mph - N/A   Mostly Cloudy
6:13 PM 21.2 °F 16.4 °F 15.8 °F 80% 29.95 in 10.0 mi NNE 3.5 mph - N/A   Clear
6:33 PM 21.2 °F - 15.8 °F 80% 29.95 in 10.0 mi Calm Calm - N/A   Clear
6:53 PM 21.2 °F 14.9 °F 15.8 °F 80% 29.94 in 10.0 mi ENE 4.6 mph - N/A   Clear
7:14 PM 21.2 °F 16.4 °F 15.8 °F 80% 29.94 in 10.0 mi East 3.5 mph - N/A   Mostly Cloudy
7:33 PM 21.2 °F 14.9 °F 15.8 °F 80% 29.93 in 10.0 mi East 4.6 mph - N/A   Scattered Clouds
7:54 PM 19.4 °F 14.3 °F 15.8 °F 86% 29.92 in 10.0 mi ENE 3.5 mph - N/A   Clear
8:13 PM 19.4 °F 11.5 °F 15.8 °F 86% 29.91 in 10.0 mi East 5.8 mph - N/A   Clear
8:34 PM 17.6 °F - 14.0 °F 86% 29.91 in 10.0 mi Calm Calm - N/A   Clear
8:54 PM 14.0 °F - 12.2 °F 93% 29.92 in 10.0 mi Calm Calm - N/A   Clear
9:13 PM 17.6 °F 12.3 °F 15.8 °F 93% 29.91 in 10.0 mi ESE 3.5 mph - N/A   Scattered Clouds
9:34 PM 17.6 °F - 14.0 °F 86% 29.91 in 10.0 mi Calm Calm - N/A   Mostly Cloudy
9:53 PM 15.8 °F 8.6 °F 12.2 °F 86% 29.90 in 10.0 mi East 4.6 mph - N/A   Overcast
10:13 PM 8.6 °F -3.7 °F 6.8 °F 92% 29.89 in 10.0 mi WNW 8.1 mph - N/A   Overcast
10:34 PM 8.6 °F 2.0 °F 6.8 °F 92% 29.90 in 10.0 mi NW 3.5 mph - N/A   Overcast
10:53 PM 10.4 °F - 8.6 °F 92% 29.90 in 10.0 mi Calm Calm - N/A   Overcast
11:13 PM 10.4 °F 4.0 °F 8.6 °F 92% 29.89 in 10.0 mi North 3.5 mph - N/A   Overcast
11:34 PM 12.2 °F - 10.4 °F 92% 29.89 in 10.0 mi Calm Calm - N/A   Overcast
11:53 PM 12.2 °F - 10.4 °F 92% 29.88 in 10.0 mi Calm Calm - N/A   Overcast